Location: Chakepay
(13.3931°S, 72.1925°W)
Time: 11:15:15
(UTC+00:00)

SEDSat Delta rocket - Pass Details

Date: 15 November 2019
Orbit: 533 x 1001 km, 31.4° (Epoch: 09 December)

Event Time Altitude Azimuth Distance (km) Brightness Sun altitude
Exits shadow 09:13:10 22° 313° (NW) 1,189 4.0 -14.1°
Maximum altitude 09:13:46 23° 327° (NNW) 1,166 4.0 -13.9°
Drops below altitude 10° 09:17:03 10° 20° (NNE) 1,811 5.4 -13.2°
Sets 09:19:44 0° 35° (NE) 2,749 6.5 -12.6°
